Content
SEND FEEDBACK

Daily
Averages
Monthly
Summary
United States of America

BIG TIMBER, MONTANA


Home > North America > United States > Montana
Elevation: 4482 feet     Latitude: 45 48N     Longitude: 109 58W

WEATHER
 
SELECT A DAY
Number of Records: 177,572;   Date Range: 1/1/95 - 9/3/14
 
SHARE

PRINT THIS DATA

[ ← Previous Day ]
WEATHER ALMANAC - MARCH 29, 2014
[ Next Day → ]
[ °C ]   °F
Weather ElementAverageHighLow
Temperature44.9 °F52 °F (9:53 am)39 °F (7:53 pm)
Dewpoint25.9 °F34 °F (2:53 pm) (7:00 pm)
Humidity53.8 %76 % (2:53 pm)34 % (9:53 am)
Barometer29.75 in29.81 in (3:38 pm)29.65 in (9:53 am)
Wind Speed26.6 mph49.5 mph (11:53 am)
Wind Gust61 mph (10:53 am)
Weather ElementAverage
Visibility9.8 mi
Wind DirectionWSW (238 °)

Weather ElementTotal
Precipitation0.02 in
Heating Degree Days19.5 (Base 65)
Averaged from 25 records on March 29, 2014
WEATHER CONDITIONS BREAKOUT
WIND DIRECTION BREAKOUT
WEATHER BY HOUR - MARCH 29, 2014
[ °C ]   °F
Local TimeTemperatureDewpointHumidityBarometerVisibilityWind DirectionWind SpeedGust SpeedPrecipitationEventsConditions
1:53 AM46.9 °F26.1 °F44 %29.79 in10.0 miSW (230°)29.9 mph38.0 mphMostly Cloudy
2:53 AM46.9 °F26.1 °F44 %29.78 in10.0 miSW (220°)32.2 mph47.2 mphClear
3:53 AM46.9 °F25.0 °F42 %29.74 in10.0 miSW (220°)33.4 mph49.5 mphClear
4:53 AM48.0 °F25.0 °F41 %29.71 in10.0 miSW (220°)33.4 mph46.0 mphClear
5:53 AM48.0 °F24.1 °F39 %29.68 in10.0 miSSW (210°)35.7 mph47.2 mphClear
6:53 AM48.0 °F23.0 °F37 %29.69 in10.0 miSW (220°)34.5 mph44.9 mphClear
7:53 AM48.9 °F23.0 °F36 %29.68 in10.0 miSW (220°)33.4 mph46.0 mphClear
8:53 AM50.0 °F23.0 °F35 %29.67 in10.0 miSW (220°)43.7 mph52.9 mphClear
9:53 AM52.0 °F24.1 °F34 %29.65 in10.0 miSW (220°)43.7 mph55.2 mphMostly Cloudy
10:53 AM51.1 °F25.0 °F36 %29.66 in10.0 miSSW (210°)39.1 mph61.0 mphOvercast
11:53 AM52.0 °F25.0 °F35 %29.66 in10.0 miSSW (210°)49.5 mph61.0 mphOvercast
12:53 PM52.0 °F27.0 °F38 %29.69 in10.0 miSSW (210°)42.6 mph54.1 mphOvercast
1:53 PM43.0 °F32.0 °F65 %29.77 in10.0 miNW (320°)11.5 mph35.7 mphOvercast
2:53 PM41.0 °F34.0 °F76 %29.79 in10.0 miNNW (340°)18.4 mph0.01 inRainLight Rain
3:38 PM41.0 °F34.0 °F76 %29.81 in10.0 miWNW (300°)9.2 mph0.00 inOvercast
3:53 PM41.0 °F33.1 °F73 %29.80 in4.0 miSouth (190°)12.7 mph0.01 inRainLight Rain
4:11 PM41.0 °F33.1 °F73 %29.78 in10.0 miSW (230°)21.9 mph0.00 inRainLight Rain
4:53 PM42.1 °F0.0 °F29.78 in10.0 miWest (270°)15.0 mph0.00 inOvercast
5:53 PM42.1 °F0.0 °F29.80 in10.0 miWest (260°)19.6 mphOvercast
6:53 PM41.0 °F30.9 °F67 %29.81 in10.0 miWSW (240°)19.6 mphOvercast
7:53 PM39.0 °F32.0 °F76 %29.81 in10.0 miSW (220°)16.1 mph0.00 inOvercast
8:53 PM41.0 °F30.0 °F65 %29.79 in10.0 miWSW (240°)17.3 mphOvercast
9:53 PM41.0 °F30.0 °F65 %29.79 in10.0 miWSW (240°)17.3 mphOvercast
10:53 PM39.9 °F28.9 °F65 %29.77 in10.0 miWSW (240°)17.3 mphOvercast
11:53 PM39.0 °F32.0 °F76 %29.76 in10.0 miWSW (250°)18.4 mphOvercast
Hourly data recorded from KLVM, located miles away from Big Timber, Montana







STORIES FROM OUR PARTNERS